This demonstration page uses our WeatherBlox Daily Observations layout. Learn more.

40.92945, -100.16068

Hourly Observations for July 20, 2015

Temp ( °F °C ) Dew Point ( °F °C ) Humidity (%) Winds ( mph kmh ) Pressure ( in mb ) Visibility ( mi km ) Precip ( " mm )
12:15 am 00:15 Clear 73 23 70 21 89 89 S 5 7 29.88 1012 10 16.0934 N/A
12:35 am 00:35 Clear 73 23 70 21 89 89 S 3 6 29.88 1012 10 16.0934 N/A
12:55 am 00:55 Clear 73 23 70 21 89 89 S 3 6 29.88 1012 10 16.0934 N/A
1:15 am 01:15 Clear 73 22.7 69 20.6 88 88 S 5 7 29.88 1012 10 16.0934 N/A
1:35 am 01:35 Clear 73 22.5 69 20.6 89 89 S 3 6 29.88 1012 10 16.0934 N/A
1:55 am 01:55 Clear 72 22.3 69 20.6 90 90 S 6 9 29.88 1012 10 16.0934 N/A
2:15 am 02:15 Clear 73 22.8 70 21 90 90 S 7 11 29.88 1012 10 16.0934 N/A
2:35 am 02:35 Clear 75 23.7 70 21.2 86 86 SSW 6 9 29.85 1011 10 16.0934 N/A
2:55 am 02:55 Clear 75 23.9 70 21.3 85 85 S 8 13 29.83 1010 10 16.0934 N/A
3:15 am 03:15 Clear 75 23.7 71 21.5 88 88 SSW 7 11 29.83 1010 10 16.0934 N/A
3:35 am 03:35 Clear 74 23.3 71 21.5 90 90 SW 7 11 29.83 1010 10 16.0934 N/A
3:55 am 03:55 Clear 74 23.5 71 21.7 90 90 WSW 6 9 29.83 1010 10 16.0934 N/A
4:15 am 04:15 Clear 74 23.6 71 21.7 89 89 WSW 7 11 29.83 1010 10 16.0934 N/A
4:35 am 04:35 Clear 74 23.3 71 21.6 90 90 WSW 6 9 29.8 1009 10 16.0934 N/A
4:55 am 04:55 Clear 73 22.6 70 21.1 91 91 WSW 3 6 29.8 1009 10 16.0934 N/A
5:15 am 05:15 Clear 72 22.2 70 21 93 93 WSW 3 6 29.83 1010 7 11.26538 N/A
5:35 am 05:35 Clear 72 22 69 20.7 92 92 W 5 7 29.83 1010 7 11.26538 N/A
5:55 am 05:55 Clear 71 21.4 68 20.2 93 93 W 5 7 29.85 1011 7 11.26538 N/A
6:15 am 06:15 Clear with Mist and Fog 70 21 68 20 94 94 W 6 9 29.85 1011 5 8.0467 N/A
6:35 am 06:35 Sunny with Mist and Fog 69 20.7 67 19.7 94 94 WNW 6 9 29.85 1011 5 8.0467 N/A
6:55 am 06:55 Sunny 70 21 68 19.8 93 93 WNW 8 13 29.85 1011 7 11.26538 N/A
7:15 am 07:15 Sunny 70 21 68 19.8 93 93 WNW 10 17 29.85 1011 7 11.26538 N/A
7:35 am 07:35 Sunny 70 21.2 67 19.6 91 91 WNW 9 15 29.88 1012 10 16.0934 N/A
7:55 am 07:55 Sunny 71 21.6 67 19.6 88 88 WNW 9 15 29.88 1012 10 16.0934 N/A
8:15 am 08:15 Sunny 72 22.1 67 19.4 85 85 NW 12 19 29.88 1012 10 16.0934 N/A
8:35 am 08:35 Sunny 73 22.5 67 19.6 84 84 NW 13 20 29.88 1012 10 16.0934 N/A
8:55 am 08:55 Sunny 73 23 67 19.7 82 82 NNW 13 20 29.88 1012 10 16.0934 N/A
9:15 am 09:15 Sunny 75 24 68 20 78 78 NNW 10 17 29.88 1012 10 16.0934 N/A
9:35 am 09:35 Sunny 78 25.5 68 19.9 71 71 N 12 19 29.88 1012 10 16.0934 N/A
9:55 am 09:55 Sunny 79 26 65 18.3 63 63 N 13 20 29.88 1012 10 16.0934 N/A
10:15 am 10:15 Sunny 80 26.5 66 18.7 62 62 N 10 17 29.85 1011 10 16.0934 N/A
10:35 am 10:35 Sunny 81 27.1 64 17.8 57 57 N 8 13 29.85 1011 10 16.0934 N/A
10:55 am 10:55 Sunny 82 27.6 64 17.7 55 55 N 10 17 29.88 1012 10 16.0934 N/A
11:15 am 11:15 Sunny 82 27.5 64 17.9 56 56 N 14 22 29.88 1012 10 16.0934 N/A
11:35 am 11:35 Sunny 82 27.6 65 18.4 57 57 N 14 22 29.88 1012 10 16.0934 N/A
11:55 am 11:55 Sunny 82 28 65 18.3 56 56 NNE 13 20 29.88 1012 10 16.0934 N/A
12:15 pm 12:15 Sunny 83 28.3 66 19 57 57 N 14 22 29.88 1012 10 16.0934 N/A
12:35 pm 12:35 Sunny 83 28.4 65 18.5 55 55 NNE 13 20 29.88 1012 10 16.0934 N/A
12:55 pm 12:55 Sunny 83 28.5 64 17.9 53 53 NNE 12 19 29.88 1012 10 16.0934 N/A
1:15 pm 13:15 Sunny 84 28.7 66 18.8 55 55 NE 13 20 29.88 1012 10 16.0934 N/A
1:35 pm 13:35 Sunny 84 29 65 18.6 53 53 NNE 13 20 29.88 1012 10 16.0934 N/A
1:55 pm 13:55 Sunny 84 29.1 64 17.8 51 51 NNE 12 19 29.88 1012 10 16.0934 N/A
2:15 pm 14:15 Sunny 85 29.3 64 18 51 51 NE 12 19 29.88 1012 10 16.0934 N/A
2:35 pm 14:35 Sunny 85 29.5 64 17.5 48 48 NNE 10 17 29.88 1012 10 16.0934 N/A
2:55 pm 14:55 Sunny 85 29.5 62 16.7 46 46 N 9 15 29.88 1012 10 16.0934 N/A
3:15 pm 15:15 Sunny 85 29.7 63 17 46 46 NNE 9 15 29.88 1012 10 16.0934 N/A
3:35 pm 15:35 Partly Cloudy 85 29.6 63 17 47 47 NE 10 17 29.88 1012 10 16.0934 N/A
3:55 pm 15:55 Sunny 85 29.5 61 16.2 45 45 N 9 15 29.88 1012 10 16.0934 N/A
4:15 pm 16:15 Sunny 85 29.5 62 16.5 45 45 NNE 9 15 29.88 1012 10 16.0934 N/A
4:35 pm 16:35 Sunny 85 29.2 59 15.1 42 42 NE 7 11 29.88 1012 10 16.0934 N/A
4:55 pm 16:55 Sunny 85 29.5 60 15.7 43 43 N 7 11 29.88 1012 10 16.0934 N/A
5:15 pm 17:15 Sunny 84 29.1 60 15.4 43 43 NE 8 13 29.88 1012 10 16.0934 N/A
5:35 pm 17:35 Sunny 84 29 58 14.7 42 42 ENE 7 11 29.88 1012 10 16.0934 N/A
5:55 pm 17:55 Sunny 84 29 59 15.1 43 43 NE 10 17 29.88 1012 10 16.0934 N/A
6:15 pm 18:15 Sunny 84 28.7 59 15.2 44 44 NE 6 9 29.88 1012 10 16.0934 N/A
6:35 pm 18:35 Sunny 83 28.5 60 15.6 46 46 NE 8 13 29.88 1012 10 16.0934 N/A
6:55 pm 18:55 Sunny 83 28.2 61 16 48 48 NE 6 9 29.88 1012 10 16.0934 N/A
7:15 pm 19:15 Sunny 82 27.6 59 15 46 46 NE 10 17 29.88 1012 10 16.0934 N/A
7:35 pm 19:35 Sunny 80 26.7 59 15.2 49 49 NE 6 9 29.91 1013 10 16.0934 N/A
7:55 pm 19:55 Sunny 79 26 59 15 51 51 NE 7 11 29.91 1013 10 16.0934 N/A
8:15 pm 20:15 Sunny 77 24.9 60 15.6 56 56 NNE 6 9 29.91 1013 10 16.0934 N/A
8:35 pm 20:35 Sunny 74 23.5 61 15.9 62 62 NNE 6 9 29.91 1013 10 16.0934 N/A
8:55 pm 20:55 Sunny 72 22.4 59 15.2 64 64 NNE 7 11 29.94 1014 10 16.0934 N/A
9:15 pm 21:15 Clear 70 21.1 59 15.2 69 69 NE 8 13 29.94 1014 10 16.0934 N/A
9:35 pm 21:35 Clear 69 20.5 59 15.1 71 71 NE 7 11 29.94 1014 10 16.0934 N/A
9:55 pm 21:55 Clear 68 20.1 59 15 73 73 NE 7 11 29.97 1015 10 16.0934 N/A
10:15 pm 22:15 Clear 67 19.6 58 14.5 73 73 ENE 6 9 29.97 1015 10 16.0934 N/A
10:35 pm 22:35 Clear 67 19.5 58 14.6 73 73 E 7 11 29.97 1015 10 16.0934 N/A
10:55 pm 22:55 Clear 66 18.7 58 14.7 78 78 E 6 9 29.97 1015 10 16.0934 N/A
11:15 pm 23:15 Clear 66 18.7 58 14.5 77 77 E 6 9 29.97 1015 10 16.0934 N/A
11:35 pm 23:35 Clear 66 19.1 58 14.7 76 76 Calm 29.97 1015 10 16.0934 N/A
11:55 pm 23:55 Clear 66 18.7 58 14.7 78 78 SSE 3 6 29.97 1015 10 16.0934 N/A

Powered by AerisWeather